owner,sensor,date,latitude,longitude,air_pressure(mBar),qcFlag 
NDBC,ioos:station:NOAA.NDBC:SANF1:1,2011-06-03T20:00:00Z,24.4560,-81.8770,1016.3,1111122 
NDBC,ioos:station:NOAA.NDBC:SANF1:1,2011-06-03T21:00:00Z,24.4560,-81.8770,1015.6,1111122 
NDBC,ioos:station:NOAA.NDBC:SANF1:1,2011-06-03T22:00:00Z,24.4560,-81.8770,1015.2,1111122 
NDBC,ioos:station:NOAA.NDBC:SANF1:1,2011-06-03T23:00:00Z,24.4560,-81.8770,1015.3,1111122 
NDBC,ioos:station:NOAA.NDBC:SANF1:1,2011-06-04T00:00:00Z,24.4560,-81.8770,1015.5,1111122 
NDBC,ioos:station:NOAA.NDBC:SANF1:1,2011-06-04T01:00:00Z,24.4560,-81.8770,1016.1,1111122 
NDBC,ioos:station:NOAA.NDBC:SANF1:1,2011-06-04T02:00:00Z,24.4560,-81.8770,1016.7,1111122 
NDBC,ioos:station:NOAA.NDBC:SANF1:1,2011-06-04T03:00:00Z,24.4560,-81.8770,1017.4,1111122 
NDBC,ioos:station:NOAA.NDBC:SANF1:1,2011-06-04T04:00:00Z,24.4560,-81.8770,1017.8,1111122 
NDBC,ioos:station:NOAA.NDBC:SANF1:1,2011-06-04T05:00:00Z,24.4560,-81.8770,1018.1,1111122 
NDBC,ioos:station:NOAA.NDBC:SANF1:1,2011-06-04T06:00:00Z,24.4560,-81.8770,1018.0,1111122 
NDBC,ioos:station:NOAA.NDBC:SANF1:1,2011-06-04T07:00:00Z,24.4560,-81.8770,1017.7,1111122 
NDBC,ioos:station:NOAA.NDBC:SANF1:1,2011-06-04T08:00:00Z,24.4560,-81.8770,1017.5,1111122 
NDBC,ioos:station:NOAA.NDBC:SANF1:1,2011-06-04T09:00:00Z,24.4560,-81.8770,1017.7,1111122 
NDBC,ioos:station:NOAA.NDBC:SANF1:1,2011-06-04T10:00:00Z,24.4560,-81.8770,1018.1,1111122 
NDBC,ioos:station:NOAA.NDBC:SANF1:1,2011-06-04T11:00:00Z,24.4560,-81.8770,1018.8,1111122 
NDBC,ioos:station:NOAA.NDBC:SANF1:1,2011-06-04T12:00:00Z,24.4560,-81.8770,1019.0,1111122 
NDBC,ioos:station:NOAA.NDBC:SANF1:1,2011-06-04T13:00:00Z,24.4560,-81.8770,1019.4,1111122 
NDBC,ioos:station:NOAA.NDBC:SANF1:1,2011-06-04T14:00:00Z,24.4560,-81.8770,1019.6,1111122 
NDBC,ioos:station:NOAA.NDBC:SANF1:1,2011-06-04T15:00:00Z,24.4560,-81.8770,1019.5,1111122 
NDBC,ioos:station:NOAA.NDBC:SANF1:1,2011-06-04T16:00:00Z,24.4560,-81.8770,1019.4,1111122 
NDBC,ioos:station:NOAA.NDBC:SANF1:1,2011-06-04T17:00:00Z,24.4560,-81.8770,1018.8,1111122 
NDBC,ioos:station:NOAA.NDBC:SANF1:1,2011-06-04T18:00:00Z,24.4560,-81.8770,1018.5,1111122 
NDBC,ioos:station:NOAA.NDBC:SANF1:1,2011-06-04T19:00:00Z,24.4560,-81.8770,1017.8,1111122 
NDBC,ioos:station:NOAA.NDBC:SANF1:1,2011-06-04T20:00:00Z,24.4560,-81.8770,1017.0,1111122 
NDBC,ioos:station:NOAA.NDBC:SANF1:1,2011-06-04T21:00:00Z,24.4560,-81.8770,1016.8,1111122 
NDBC,ioos:station:NOAA.NDBC:SANF1:1,2011-06-04T22:00:00Z,24.4560,-81.8770,1016.4,1111122 
NDBC,ioos:station:NOAA.NDBC:SANF1:1,2011-06-04T23:00:00Z,24.4560,-81.8770,1016.5,1111122 
NDBC,ioos:station:NOAA.NDBC:SANF1:1,2011-06-05T00:00:00Z,24.4560,-81.8770,1016.8,1111122 
NDBC,ioos:station:NOAA.NDBC:SANF1:1,2011-06-05T01:00:00Z,24.4560,-81.8770,1017.2,1111122 
NDBC,ioos:station:NOAA.NDBC:SANF1:1,2011-06-05T02:00:00Z,24.4560,-81.8770,1017.7,1111122 
NDBC,ioos:station:NOAA.NDBC:SANF1:1,2011-06-05T03:00:00Z,24.4560,-81.8770,1018.2,1111122 
NDBC,ioos:station:NOAA.NDBC:SANF1:1,2011-06-05T04:00:00Z,24.4560,-81.8770,1018.3,1111122 
NDBC,ioos:station:NOAA.NDBC:SANF1:1,2011-06-05T05:00:00Z,24.4560,-81.8770,1018.1,1111122 
NDBC,ioos:station:NOAA.NDBC:SANF1:1,2011-06-05T06:00:00Z,24.4560,-81.8770,1017.5,1111122 
NDBC,ioos:station:NOAA.NDBC:SANF1:1,2011-06-05T07:00:00Z,24.4560,-81.8770,1017.2,1111122 
NDBC,ioos:station:NOAA.NDBC:SANF1:1,2011-06-05T08:00:00Z,24.4560,-81.8770,1017.3,1111122 
NDBC,ioos:station:NOAA.NDBC:SANF1:1,2011-06-05T09:00:00Z,24.4560,-81.8770,1017.2,1111122 
NDBC,ioos:station:NOAA.NDBC:SANF1:1,2011-06-05T10:00:00Z,24.4560,-81.8770,1017.7,1111122 
NDBC,ioos:station:NOAA.NDBC:SANF1:1,2011-06-05T11:00:00Z,24.4560,-81.8770,1018.3,1111122 
NDBC,ioos:station:NOAA.NDBC:SANF1:1,2011-06-05T12:00:00Z,24.4560,-81.8770,1018.6,1111122 
NDBC,ioos:station:NOAA.NDBC:SANF1:1,2011-06-05T13:00:00Z,24.4560,-81.8770,1018.8,1111122 
NDBC,ioos:station:NOAA.NDBC:SANF1:1,2011-06-05T14:00:00Z,24.4560,-81.8770,1018.6,1111122 
NDBC,ioos:station:NOAA.NDBC:SANF1:1,2011-06-05T15:00:00Z,24.4560,-81.8770,1018.5,1111122 
NDBC,ioos:station:NOAA.NDBC:SANF1:1,2011-06-05T16:00:00Z,24.4560,-81.8770,1018.1,1111122 
NDBC,ioos:station:NOAA.NDBC:SANF1:1,2011-06-05T17:00:00Z,24.4560,-81.8770,1017.5,1111122 
NDBC,ioos:station:NOAA.NDBC:SANF1:1,2011-06-05T18:00:00Z,24.4560,-81.8770,1016.8,1111122 
NDBC,ioos:station:NOAA.NDBC:SANF1:1,2011-06-05T19:00:00Z,24.4560,-81.8770,1016.1,1111122 
NDBC,ioos:station:NOAA.NDBC:SANF1:1,2011-06-05T20:00:00Z,24.4560,-81.8770,1015.3,1111122 
NDBC,ioos:station:NOAA.NDBC:SANF1:1,2011-06-05T21:00:00Z,24.4560,-81.8770,1014.7,1111122 
NDBC,ioos:station:NOAA.NDBC:SANF1:1,2011-06-05T22:00:00Z,24.4560,-81.8770,1014.2,1111122 
NDBC,ioos:station:NOAA.NDBC:SANF1:1,2011-06-05T23:00:00Z,24.4560,-81.8770,1014.1,1111122 
NDBC,ioos:station:NOAA.NDBC:SANF1:1,2011-06-06T00:00:00Z,24.4560,-81.8770,1014.7,1111122 
NDBC,ioos:station:NOAA.NDBC:SANF1:1,2011-06-06T01:00:00Z,24.4560,-81.8770,1014.6,1111122 
NDBC,ioos:station:NOAA.NDBC:SANF1:1,2011-06-06T02:00:00Z,24.4560,-81.8770,1014.9,1111122 
NDBC,ioos:station:NOAA.NDBC:SANF1:1,2011-06-06T03:00:00Z,24.4560,-81.8770,1015.5,1111122 
NDBC,ioos:station:NOAA.NDBC:SANF1:1,2011-06-06T04:00:00Z,24.4560,-81.8770,1015.0,1111122 
NDBC,ioos:station:NOAA.NDBC:SANF1:1,2011-06-06T05:00:00Z,24.4560,-81.8770,1014.6,1111122 
NDBC,ioos:station:NOAA.NDBC:SANF1:1,2011-06-06T06:00:00Z,24.4560,-81.8770,1014.0,1111122 
NDBC,ioos:station:NOAA.NDBC:SANF1:1,2011-06-06T07:00:00Z,24.4560,-81.8770,1013.3,1111122 
NDBC,ioos:station:NOAA.NDBC:SANF1:1,2011-06-06T08:00:00Z,24.4560,-81.8770,1012.7,1111122 
NDBC,ioos:station:NOAA.NDBC:SANF1:1,2011-06-06T09:00:00Z,24.4560,-81.8770,1013.1,1111122 
NDBC,ioos:station:NOAA.NDBC:SANF1:1,2011-06-06T10:00:00Z,24.4560,-81.8770,1013.1,1111122 
NDBC,ioos:station:NOAA.NDBC:SANF1:1,2011-06-06T11:00:00Z,24.4560,-81.8770,1013.3,1111122 
NDBC,ioos:station:NOAA.NDBC:SANF1:1,2011-06-06T12:00:00Z,24.4560,-81.8770,1013.7,1111122 
NDBC,ioos:station:NOAA.NDBC:SANF1:1,2011-06-06T13:00:00Z,24.4560,-81.8770,1014.1,1111122 
NDBC,ioos:station:NOAA.NDBC:SANF1:1,2011-06-06T14:00:00Z,24.4560,-81.8770,1014.2,1111122 
NDBC,ioos:station:NOAA.NDBC:SANF1:1,2011-06-06T15:00:00Z,24.4560,-81.8770,1013.9,1111122 
NDBC,ioos:station:NOAA.NDBC:SANF1:1,2011-06-06T16:00:00Z,24.4560,-81.8770,1014.1,1111122 
NDBC,ioos:station:NOAA.NDBC:SANF1:1,2011-06-06T17:00:00Z,24.4560,-81.8770,1013.7,1111122 
NDBC,ioos:station:NOAA.NDBC:SANF1:1,2011-06-06T18:00:00Z,24.4560,-81.8770,1013.4,1111122 
NDBC,ioos:station:NOAA.NDBC:SANF1:1,2011-06-06T19:00:00Z,24.4560,-81.8770,1012.3,1111122 
NDBC,ioos:station:NOAA.NDBC:SANF1:1,2011-06-06T20:00:00Z,24.4560,-81.8770,1011.9,1111122 
NDBC,ioos:station:NOAA.NDBC:SANF1:1,2011-06-06T21:00:00Z,24.4560,-81.8770,1011.7,1111122 
NDBC,ioos:station:NOAA.NDBC:SANF1:1,2011-06-06T22:00:00Z,24.4560,-81.8770,1012.4,1111122 
NDBC,ioos:station:NOAA.NDBC:SANF1:1,2011-06-06T23:00:00Z,24.4560,-81.8770,1012.8,1111122 
NDBC,ioos:station:NOAA.NDBC:SANF1:1,2011-06-07T00:00:00Z,24.4560,-81.8770,1012.8,1111122 
NDBC,ioos:station:NOAA.NDBC:SANF1:1,2011-06-07T01:00:00Z,24.4560,-81.8770,1012.1,1111122 
NDBC,ioos:station:NOAA.NDBC:SANF1:1,2011-06-07T02:00:00Z,24.4560,-81.8770,1012.1,1111122 
NDBC,ioos:station:NOAA.NDBC:SANF1:1,2011-06-07T03:00:00Z,24.4560,-81.8770,1012.9,1111122 
NDBC,ioos:station:NOAA.NDBC:SANF1:1,2011-06-07T04:00:00Z,24.4560,-81.8770,1013.4,1111122 
NDBC,ioos:station:NOAA.NDBC:SANF1:1,2011-06-07T05:00:00Z,24.4560,-81.8770,1013.9,1111122 
NDBC,ioos:station:NOAA.NDBC:SANF1:1,2011-06-07T06:00:00Z,24.4560,-81.8770,1013.7,1111122 
NDBC,ioos:station:NOAA.NDBC:SANF1:1,2011-06-07T07:00:00Z,24.4560,-81.8770,1013.3,1111122 
NDBC,ioos:station:NOAA.NDBC:SANF1:1,2011-06-07T10:00:00Z,24.4560,-81.8770,1013.9,1111122 
NDBC,ioos:station:NOAA.NDBC:SANF1:1,2011-06-07T11:00:00Z,24.4560,-81.8770,1014.6,1111122 
NDBC,ioos:station:NOAA.NDBC:SANF1:1,2011-06-07T13:00:00Z,24.4560,-81.8770,1015.6,1111122 
NDBC,ioos:station:NOAA.NDBC:SANF1:1,2011-06-07T14:00:00Z,24.4560,-81.8770,1015.7,1111122 
NDBC,ioos:station:NOAA.NDBC:SANF1:1,2011-06-07T15:00:00Z,24.4560,-81.8770,1015.7,1111122 
NDBC,ioos:station:NOAA.NDBC:SANF1:1,2011-06-07T16:00:00Z,24.4560,-81.8770,1015.7,1111122 
NDBC,ioos:station:NOAA.NDBC:SANF1:1,2011-06-07T17:00:00Z,24.4560,-81.8770,1015.4,1111122 
NDBC,ioos:station:NOAA.NDBC:SANF1:1,2011-06-07T18:00:00Z,24.4560,-81.8770,1015.1,1111122 
NDBC,ioos:station:NOAA.NDBC:SANF1:1,2011-06-07T19:00:00Z,24.4560,-81.8770,1014.4,1111122 
NDBC,ioos:station:NOAA.NDBC:SANF1:1,2011-06-07T20:00:00Z,24.4560,-81.8770,1013.8,1111122 
NDBC,ioos:station:NOAA.NDBC:SANF1:1,2011-06-07T21:00:00Z,24.4560,-81.8770,1013.3,1111122 
NDBC,ioos:station:NOAA.NDBC:SANF1:1,2011-06-07T22:00:00Z,24.4560,-81.8770,1014.2,1111122 
NDBC,ioos:station:NOAA.NDBC:SANF1:1,2011-06-07T23:00:00Z,24.4560,-81.8770,1014.3,1111122 
NDBC,ioos:station:NOAA.NDBC:SANF1:1,2011-06-08T00:00:00Z,24.4560,-81.8770,1014.9,1111122 
NDBC,ioos:station:NOAA.NDBC:SANF1:1,2011-06-08T01:00:00Z,24.4560,-81.8770,1015.0,1111122 
NDBC,ioos:station:NOAA.NDBC:SANF1:1,2011-06-08T02:00:00Z,24.4560,-81.8770,1015.2,1111122 
NDBC,ioos:station:NOAA.NDBC:SANF1:1,2011-06-08T03:00:00Z,24.4560,-81.8770,1015.9,1111122 
NDBC,ioos:station:NOAA.NDBC:SANF1:1,2011-06-08T04:00:00Z,24.4560,-81.8770,1016.6,1111122 
NDBC,ioos:station:NOAA.NDBC:SANF1:1,2011-06-08T05:00:00Z,24.4560,-81.8770,1016.8,1111122 
NDBC,ioos:station:NOAA.NDBC:SANF1:1,2011-06-08T06:00:00Z,24.4560,-81.8770,1016.6,1111122 
NDBC,ioos:station:NOAA.NDBC:SANF1:1,2011-06-08T07:00:00Z,24.4560,-81.8770,1016.4,1111122 
NDBC,ioos:station:NOAA.NDBC:SANF1:1,2011-06-08T08:00:00Z,24.4560,-81.8770,1016.1,1111122 
NDBC,ioos:station:NOAA.NDBC:SANF1:1,2011-06-08T09:00:00Z,24.4560,-81.8770,1016.3,1111122 
NDBC,ioos:station:NOAA.NDBC:SANF1:1,2011-06-08T10:00:00Z,24.4560,-81.8770,1016.5,1111122 
NDBC,ioos:station:NOAA.NDBC:SANF1:1,2011-06-08T11:00:00Z,24.4560,-81.8770,1016.9,1111122 
NDBC,ioos:station:NOAA.NDBC:SANF1:1,2011-06-08T12:00:00Z,24.4560,-81.8770,1017.5,1111122 
NDBC,ioos:station:NOAA.NDBC:SANF1:1,2011-06-08T14:00:00Z,24.4560,-81.8770,1018.2,1111122 
NDBC,ioos:station:NOAA.NDBC:SANF1:1,2011-06-08T15:00:00Z,24.4560,-81.8770,1018.0,1111122 
NDBC,ioos:station:NOAA.NDBC:SANF1:1,2011-06-08T16:00:00Z,24.4560,-81.8770,1017.9,1111122 
NDBC,ioos:station:NOAA.NDBC:SANF1:1,2011-06-08T17:00:00Z,24.4560,-81.8770,1017.5,1111122 
NDBC,ioos:station:NOAA.NDBC:SANF1:1,2011-06-08T18:00:00Z,24.4560,-81.8770,1016.7,1111122 
NDBC,ioos:station:NOAA.NDBC:SANF1:1,2011-06-08T19:00:00Z,24.4560,-81.8770,1015.9,1111122 
NDBC,ioos:station:NOAA.NDBC:SANF1:1,2011-06-08T20:00:00Z,24.4560,-81.8770,1015.1,1111122 
NDBC,ioos:station:NOAA.NDBC:SANF1:1,2011-06-08T21:00:00Z,24.4560,-81.8770,1014.8,1111122 
NDBC,ioos:station:NOAA.NDBC:SANF1:1,2011-06-08T22:00:00Z,24.4560,-81.8770,1014.5,1111122 
NDBC,ioos:station:NOAA.NDBC:SANF1:1,2011-06-08T23:00:00Z,24.4560,-81.8770,1014.6,1111122 
NDBC,ioos:station:NOAA.NDBC:SANF1:1,2011-06-09T00:00:00Z,24.4560,-81.8770,1015.5,1111122 
NDBC,ioos:station:NOAA.NDBC:SANF1:1,2011-06-09T01:00:00Z,24.4560,-81.8770,1016.0,1111122 
NDBC,ioos:station:NOAA.NDBC:SANF1:1,2011-06-09T02:00:00Z,24.4560,-81.8770,1016.5,1111122 
NDBC,ioos:station:NOAA.NDBC:SANF1:1,2011-06-09T03:00:00Z,24.4560,-81.8770,1017.3,1111122 
NDBC,ioos:station:NOAA.NDBC:SANF1:1,2011-06-09T04:00:00Z,24.4560,-81.8770,1017.6,1111122 
NDBC,ioos:station:NOAA.NDBC:SANF1:1,2011-06-09T05:00:00Z,24.4560,-81.8770,1017.2,1111122 
NDBC,ioos:station:NOAA.NDBC:SANF1:1,2011-06-09T06:00:00Z,24.4560,-81.8770,1016.7,1111122 
NDBC,ioos:station:NOAA.NDBC:SANF1:1,2011-06-09T07:00:00Z,24.4560,-81.8770,1016.3,1111122 
NDBC,ioos:station:NOAA.NDBC:SANF1:1,2011-06-09T08:00:00Z,24.4560,-81.8770,1015.9,1111122 
NDBC,ioos:station:NOAA.NDBC:SANF1:1,2011-06-09T09:00:00Z,24.4560,-81.8770,1016.2,1111122 
NDBC,ioos:station:NOAA.NDBC:SANF1:1,2011-06-09T10:00:00Z,24.4560,-81.8770,1016.5,1111122 
NDBC,ioos:station:NOAA.NDBC:SANF1:1,2011-06-09T11:00:00Z,24.4560,-81.8770,1016.9,1111122 
NDBC,ioos:station:NOAA.NDBC:SANF1:1,2011-06-09T12:00:00Z,24.4560,-81.8770,1017.1,1111122 
NDBC,ioos:station:NOAA.NDBC:SANF1:1,2011-06-09T13:00:00Z,24.4560,-81.8770,1017.3,1111122 
NDBC,ioos:station:NOAA.NDBC:SANF1:1,2011-06-09T14:00:00Z,24.4560,-81.8770,1017.3,1111122 
NDBC,ioos:station:NOAA.NDBC:SANF1:1,2011-06-09T15:00:00Z,24.4560,-81.8770,1017.3,1111122 
NDBC,ioos:station:NOAA.NDBC:SANF1:1,2011-06-09T16:00:00Z,24.4560,-81.8770,1017.2,1111122 
NDBC,ioos:station:NOAA.NDBC:SANF1:1,2011-06-09T17:00:00Z,24.4560,-81.8770,1016.9,1111122 
NDBC,ioos:station:NOAA.NDBC:SANF1:1,2011-06-09T18:00:00Z,24.4560,-81.8770,1016.3,1111122 
NDBC,ioos:station:NOAA.NDBC:SANF1:1,2011-06-09T19:00:00Z,24.4560,-81.8770,1015.5,1111122 
NDBC,ioos:station:NOAA.NDBC:SANF1:1,2011-06-09T20:00:00Z,24.4560,-81.8770,1014.5,1111122 
NDBC,ioos:station:NOAA.NDBC:SANF1:1,2011-06-09T21:00:00Z,24.4560,-81.8770,1013.8,1111122 
NDBC,ioos:station:NOAA.NDBC:SANF1:1,2011-06-09T22:00:00Z,24.4560,-81.8770,1013.5,1111122 
NDBC,ioos:station:NOAA.NDBC:SANF1:1,2011-06-09T23:00:00Z,24.4560,-81.8770,1013.3,1111122 
NDBC,ioos:station:NOAA.NDBC:SANF1:1,2011-06-10T00:00:00Z,24.4560,-81.8770,1013.6,1111122 
NDBC,ioos:station:NOAA.NDBC:SANF1:1,2011-06-10T01:00:00Z,24.4560,-81.8770,1013.8,1111122 
NDBC,ioos:station:NOAA.NDBC:SANF1:1,2011-06-10T02:00:00Z,24.4560,-81.8770,1014.8,1111122 
NDBC,ioos:station:NOAA.NDBC:SANF1:1,2011-06-10T03:00:00Z,24.4560,-81.8770,1015.3,1111122 
NDBC,ioos:station:NOAA.NDBC:SANF1:1,2011-06-10T04:00:00Z,24.4560,-81.8770,1015.4,1111122 
NDBC,ioos:station:NOAA.NDBC:SANF1:1,2011-06-10T05:00:00Z,24.4560,-81.8770,1015.2,1111122 
NDBC,ioos:station:NOAA.NDBC:SANF1:1,2011-06-10T06:00:00Z,24.4560,-81.8770,1014.7,1111122 
NDBC,ioos:station:NOAA.NDBC:SANF1:1,2011-06-10T07:00:00Z,24.4560,-81.8770,1014.2,1111122 
NDBC,ioos:station:NOAA.NDBC:SANF1:1,2011-06-10T08:00:00Z,24.4560,-81.8770,1013.8,1111122 
NDBC,ioos:station:NOAA.NDBC:SANF1:1,2011-06-10T09:00:00Z,24.4560,-81.8770,1013.9,1111122 
NDBC,ioos:station:NOAA.NDBC:SANF1:1,2011-06-10T10:00:00Z,24.4560,-81.8770,1013.9,1111122 
NDBC,ioos:station:NOAA.NDBC:SANF1:1,2011-06-10T11:00:00Z,24.4560,-81.8770,1014.4,1111122 
NDBC,ioos:station:NOAA.NDBC:SANF1:1,2011-06-10T12:00:00Z,24.4560,-81.8770,1014.9,1111122 
NDBC,ioos:station:NOAA.NDBC:SANF1:1,2011-06-10T13:00:00Z,24.4560,-81.8770,1015.4,1111122 
NDBC,ioos:station:NOAA.NDBC:SANF1:1,2011-06-10T14:00:00Z,24.4560,-81.8770,1015.6,1111122 
NDBC,ioos:station:NOAA.NDBC:SANF1:1,2011-06-10T15:00:00Z,24.4560,-81.8770,1015.6,1111122 
NDBC,ioos:station:NOAA.NDBC:SANF1:1,2011-06-10T16:00:00Z,24.4560,-81.8770,1015.6,1111122 
NDBC,ioos:station:NOAA.NDBC:SANF1:1,2011-06-10T17:00:00Z,24.4560,-81.8770,1015.2,1111122 
NDBC,ioos:station:NOAA.NDBC:SANF1:1,2011-06-10T18:00:00Z,24.4560,-81.8770,1014.4,1111122 
NDBC,ioos:station:NOAA.NDBC:SANF1:1,2011-06-10T19:00:00Z,24.4560,-81.8770,1013.7,1111122 
NDBC,ioos:station:NOAA.NDBC:SANF1:1,2011-06-10T20:00:00Z,24.4560,-81.8770,1013.1,1111122 
NDBC,ioos:station:NOAA.NDBC:SANF1:1,2011-06-10T21:00:00Z,24.4560,-81.8770,1012.7,1111122 
NDBC,ioos:station:NOAA.NDBC:SANF1:1,2011-06-10T22:00:00Z,24.4560,-81.8770,1012.4,1111122 
NDBC,ioos:station:NOAA.NDBC:SANF1:1,2011-06-10T23:00:00Z,24.4560,-81.8770,1012.0,1111122 
NDBC,ioos:station:NOAA.NDBC:SANF1:1,2011-06-11T00:00:00Z,24.4560,-81.8770,1012.3,1111122 
NDBC,ioos:station:NOAA.NDBC:SANF1:1,2011-06-11T01:00:00Z,24.4560,-81.8770,1012.9,1111122 
NDBC,ioos:station:NOAA.NDBC:SANF1:1,2011-06-11T02:00:00Z,24.4560,-81.8770,1013.5,1111122 
NDBC,ioos:station:NOAA.NDBC:SANF1:1,2011-06-11T03:00:00Z,24.4560,-81.8770,1013.8,1111122 
NDBC,ioos:station:NOAA.NDBC:SANF1:1,2011-06-11T04:00:00Z,24.4560,-81.8770,1014.2,1111122 
NDBC,ioos:station:NOAA.NDBC:SANF1:1,2011-06-11T05:00:00Z,24.4560,-81.8770,1013.7,1111122 
NDBC,ioos:station:NOAA.NDBC:SANF1:1,2011-06-11T06:00:00Z,24.4560,-81.8770,1013.4,1111122 
NDBC,ioos:station:NOAA.NDBC:SANF1:1,2011-06-11T07:00:00Z,24.4560,-81.8770,1013.0,1111122 
NDBC,ioos:station:NOAA.NDBC:SANF1:1,2011-06-11T08:00:00Z,24.4560,-81.8770,1012.6,1111122 
NDBC,ioos:station:NOAA.NDBC:SANF1:1,2011-06-12T08:00:00Z,24.4560,-81.8770,1013.0,1111122 
NDBC,ioos:station:NOAA.NDBC:SANF1:1,2011-06-12T09:00:00Z,24.4560,-81.8770,1013.3,1111122 
NDBC,ioos:station:NOAA.NDBC:SANF1:1,2011-06-12T10:00:00Z,24.4560,-81.8770,1013.7,1111122 
NDBC,ioos:station:NOAA.NDBC:SANF1:1,2011-06-12T11:00:00Z,24.4560,-81.8770,1014.0,1111122 
NDBC,ioos:station:NOAA.NDBC:SANF1:1,2011-06-12T12:00:00Z,24.4560,-81.8770,1014.3,1111122 
NDBC,ioos:station:NOAA.NDBC:SANF1:1,2011-06-12T13:00:00Z,24.4560,-81.8770,1014.7,1111122 
NDBC,ioos:station:NOAA.NDBC:SANF1:1,2011-06-12T15:00:00Z,24.4560,-81.8770,1014.9,1111122 
NDBC,ioos:station:NOAA.NDBC:SANF1:1,2011-06-12T16:00:00Z,24.4560,-81.8770,1015.1,1111122 
NDBC,ioos:station:NOAA.NDBC:SANF1:1,2011-06-12T17:00:00Z,24.4560,-81.8770,1015.1,1111122 
NDBC,ioos:station:NOAA.NDBC:SANF1:1,2011-06-12T18:00:00Z,24.4560,-81.8770,1014.7,1111122 
NDBC,ioos:station:NOAA.NDBC:SANF1:1,2011-06-12T19:00:00Z,24.4560,-81.8770,1014.3,1111122 
NDBC,ioos:station:NOAA.NDBC:SANF1:1,2011-06-12T20:00:00Z,24.4560,-81.8770,1013.9,1111122 
NDBC,ioos:station:NOAA.NDBC:SANF1:1,2011-06-12T21:00:00Z,24.4560,-81.8770,1013.6,1111122 
NDBC,ioos:station:NOAA.NDBC:SANF1:1,2011-06-12T22:00:00Z,24.4560,-81.8770,1013.1,1111122 
NDBC,ioos:station:NOAA.NDBC:SANF1:1,2011-06-12T23:00:00Z,24.4560,-81.8770,1013.1,1111122 
NDBC,ioos:station:NOAA.NDBC:SANF1:1,2011-06-13T00:00:00Z,24.4560,-81.8770,1013.4,1111122 
NDBC,ioos:station:NOAA.NDBC:SANF1:1,2011-06-13T01:00:00Z,24.4560,-81.8770,1014.2,1111122 
NDBC,ioos:station:NOAA.NDBC:SANF1:1,2011-06-13T02:00:00Z,24.4560,-81.8770,1014.7,1111122 
NDBC,ioos:station:NOAA.NDBC:SANF1:1,2011-06-13T03:00:00Z,24.4560,-81.8770,1015.0,1111122 
NDBC,ioos:station:NOAA.NDBC:SANF1:1,2011-06-13T04:00:00Z,24.4560,-81.8770,1015.5,1111122 
NDBC,ioos:station:NOAA.NDBC:SANF1:1,2011-06-13T05:00:00Z,24.4560,-81.8770,1015.2,1111122 
NDBC,ioos:station:NOAA.NDBC:SANF1:1,2011-06-13T06:00:00Z,24.4560,-81.8770,1014.6,1111122 
NDBC,ioos:station:NOAA.NDBC:SANF1:1,2011-06-13T07:00:00Z,24.4560,-81.8770,1014.2,1111122 
NDBC,ioos:station:NOAA.NDBC:SANF1:1,2011-06-13T08:00:00Z,24.4560,-81.8770,1013.7,1111122 
NDBC,ioos:station:NOAA.NDBC:SANF1:1,2011-06-13T09:00:00Z,24.4560,-81.8770,1013.7,1111122 
NDBC,ioos:station:NOAA.NDBC:SANF1:1,2011-06-13T10:00:00Z,24.4560,-81.8770,1013.9,1111122 
NDBC,ioos:station:NOAA.NDBC:SANF1:1,2011-06-13T11:00:00Z,24.4560,-81.8770,1014.6,1111122 
NDBC,ioos:station:NOAA.NDBC:SANF1:1,2011-06-13T12:00:00Z,24.4560,-81.8770,1014.9,1111122 
NDBC,ioos:station:NOAA.NDBC:SANF1:1,2011-06-13T13:00:00Z,24.4560,-81.8770,1015.3,1111122 
NDBC,ioos:station:NOAA.NDBC:SANF1:1,2011-06-13T14:00:00Z,24.4560,-81.8770,1015.7,1111122 
NDBC,ioos:station:NOAA.NDBC:SANF1:1,2011-06-13T15:00:00Z,24.4560,-81.8770,1015.9,1111122 
NDBC,ioos:station:NOAA.NDBC:SANF1:1,2011-06-13T16:00:00Z,24.4560,-81.8770,1015.7,1111122 
NDBC,ioos:station:NOAA.NDBC:SANF1:1,2011-06-13T17:00:00Z,24.4560,-81.8770,1015.6,1111122 
NDBC,ioos:station:NOAA.NDBC:SANF1:1,2011-06-13T18:00:00Z,24.4560,-81.8770,1015.2,1111122 
NDBC,ioos:station:NOAA.NDBC:SANF1:1,2011-06-13T19:00:00Z,24.4560,-81.8770,1014.4,1111122 
NDBC,ioos:station:NOAA.NDBC:SANF1:1,2011-06-13T20:00:00Z,24.4560,-81.8770,1014.2,1111122 
NDBC,ioos:station:NOAA.NDBC:SANF1:1,2011-06-13T21:00:00Z,24.4560,-81.8770,1013.5,1111122 
NDBC,ioos:station:NOAA.NDBC:SANF1:1,2011-06-13T22:00:00Z,24.4560,-81.8770,1013.5,1111122 
NDBC,ioos:station:NOAA.NDBC:SANF1:1,2011-06-13T23:00:00Z,24.4560,-81.8770,1013.9,1111122 
NDBC,ioos:station:NOAA.NDBC:SANF1:1,2011-06-14T00:00:00Z,24.4560,-81.8770,1014.2,1111122 
NDBC,ioos:station:NOAA.NDBC:SANF1:1,2011-06-14T01:00:00Z,24.4560,-81.8770,1013.5,1111122 
NDBC,ioos:station:NOAA.NDBC:SANF1:1,2011-06-14T02:00:00Z,24.4560,-81.8770,1014.5,1111122 
NDBC,ioos:station:NOAA.NDBC:SANF1:1,2011-06-14T03:00:00Z,24.4560,-81.8770,1015.9,1111122 
NDBC,ioos:station:NOAA.NDBC:SANF1:1,2011-06-14T04:00:00Z,24.4560,-81.8770,1015.6,1111122 
NDBC,ioos:station:NOAA.NDBC:SANF1:1,2011-06-14T05:00:00Z,24.4560,-81.8770,1015.0,1111122 
NDBC,ioos:station:NOAA.NDBC:SANF1:1,2011-06-14T06:00:00Z,24.4560,-81.8770,1014.6,1111122 
NDBC,ioos:station:NOAA.NDBC:SANF1:1,2011-06-14T07:00:00Z,24.4560,-81.8770,1013.7,1111122 
NDBC,ioos:station:NOAA.NDBC:SANF1:1,2011-06-14T08:00:00Z,24.4560,-81.8770,1012.7,1111122 
NDBC,ioos:station:NOAA.NDBC:SANF1:1,2011-06-14T09:00:00Z,24.4560,-81.8770,1012.6,1111122 
NDBC,ioos:station:NOAA.NDBC:SANF1:1,2011-06-14T10:00:00Z,24.4560,-81.8770,1012.7,1111122 
NDBC,ioos:station:NOAA.NDBC:SANF1:1,2011-06-14T11:00:00Z,24.4560,-81.8770,1012.9,1111122 
NDBC,ioos:station:NOAA.NDBC:SANF1:1,2011-06-14T12:00:00Z,24.4560,-81.8770,1013.4,1111122 
NDBC,ioos:station:NOAA.NDBC:SANF1:1,2011-06-14T13:00:00Z,24.4560,-81.8770,1014.1,1111122 
NDBC,ioos:station:NOAA.NDBC:SANF1:1,2011-06-14T14:00:00Z,24.4560,-81.8770,1014.4,1111122 
NDBC,ioos:station:NOAA.NDBC:SANF1:1,2011-06-14T16:00:00Z,24.4560,-81.8770,1014.7,1111122 
NDBC,ioos:station:NOAA.NDBC:SANF1:1,2011-06-14T17:00:00Z,24.4560,-81.8770,1014.2,1111122 
NDBC,ioos:station:NOAA.NDBC:SANF1:1,2011-06-14T18:00:00Z,24.4560,-81.8770,1013.8,1111122 
NDBC,ioos:station:NOAA.NDBC:SANF1:1,2011-06-14T19:00:00Z,24.4560,-81.8770,1013.0,1111122 
NDBC,ioos:station:NOAA.NDBC:SANF1:1,2011-06-14T20:00:00Z,24.4560,-81.8770,1012.2,1111122 
NDBC,ioos:station:NOAA.NDBC:SANF1:1,2011-06-14T21:00:00Z,24.4560,-81.8770,1011.3,1111122 
NDBC,ioos:station:NOAA.NDBC:SANF1:1,2011-06-14T22:00:00Z,24.4560,-81.8770,1011.5,1111122 
NDBC,ioos:station:NOAA.NDBC:SANF1:1,2011-06-14T23:00:00Z,24.4560,-81.8770,1011.5,1111122 
NDBC,ioos:station:NOAA.NDBC:SANF1:1,2011-06-15T00:00:00Z,24.4560,-81.8770,1011.9,1111122 
NDBC,ioos:station:NOAA.NDBC:SANF1:1,2011-06-15T01:00:00Z,24.4560,-81.8770,1011.9,1111122 
NDBC,ioos:station:NOAA.NDBC:SANF1:1,2011-06-15T02:00:00Z,24.4560,-81.8770,1012.2,1111122 
NDBC,ioos:station:NOAA.NDBC:SANF1:1,2011-06-15T03:00:00Z,24.4560,-81.8770,1012.8,1111122 
NDBC,ioos:station:NOAA.NDBC:SANF1:1,2011-06-15T04:00:00Z,24.4560,-81.8770,1012.7,1111122 
NDBC,ioos:station:NOAA.NDBC:SANF1:1,2011-06-15T05:00:00Z,24.4560,-81.8770,1012.3,1111122 
NDBC,ioos:station:NOAA.NDBC:SANF1:1,2011-06-15T06:00:00Z,24.4560,-81.8770,1011.7,1111122 
NDBC,ioos:station:NOAA.NDBC:SANF1:1,2011-06-15T07:00:00Z,24.4560,-81.8770,1011.4,1111122 
NDBC,ioos:station:NOAA.NDBC:SANF1:1,2011-06-15T08:00:00Z,24.4560,-81.8770,1011.2,1111122 
NDBC,ioos:station:NOAA.NDBC:SANF1:1,2011-06-15T09:00:00Z,24.4560,-81.8770,1010.7,1111122 
NDBC,ioos:station:NOAA.NDBC:SANF1:1,2011-06-15T10:00:00Z,24.4560,-81.8770,1010.9,1111122 
NDBC,ioos:station:NOAA.NDBC:SANF1:1,2011-06-15T11:00:00Z,24.4560,-81.8770,1011.6,1111122 
NDBC,ioos:station:NOAA.NDBC:SANF1:1,2011-06-15T12:00:00Z,24.4560,-81.8770,1012.0,1111122 
NDBC,ioos:station:NOAA.NDBC:SANF1:1,2011-06-15T13:00:00Z,24.4560,-81.8770,1012.4,1111122 
NDBC,ioos:station:NOAA.NDBC:SANF1:1,2011-06-15T14:00:00Z,24.4560,-81.8770,1013.0,1111122 
NDBC,ioos:station:NOAA.NDBC:SANF1:1,2011-06-15T15:00:00Z,24.4560,-81.8770,1013.1,1111122 
NDBC,ioos:station:NOAA.NDBC:SANF1:1,2011-06-15T16:00:00Z,24.4560,-81.8770,1013.2,1111122 
NDBC,ioos:station:NOAA.NDBC:SANF1:1,2011-06-15T17:00:00Z,24.4560,-81.8770,1013.0,1111122 
NDBC,ioos:station:NOAA.NDBC:SANF1:1,2011-06-15T18:00:00Z,24.4560,-81.8770,1012.2,1111122 
NDBC,ioos:station:NOAA.NDBC:SANF1:1,2011-06-15T19:00:00Z,24.4560,-81.8770,1011.8,1111122 
NDBC,ioos:station:NOAA.NDBC:SANF1:1,2011-06-15T20:00:00Z,24.4560,-81.8770,1011.6,1111122 
NDBC,ioos:station:NOAA.NDBC:SANF1:1,2011-06-15T21:00:00Z,24.4560,-81.8770,1011.2,1111122 
NDBC,ioos:station:NOAA.NDBC:SANF1:1,2011-06-15T22:00:00Z,24.4560,-81.8770,1010.8,1111122 
NDBC,ioos:station:NOAA.NDBC:SANF1:1,2011-06-15T23:00:00Z,24.4560,-81.8770,1011.1,1111122 
NDBC,ioos:station:NOAA.NDBC:SANF1:1,2011-06-16T00:00:00Z,24.4560,-81.8770,1011.4,1111122 
NDBC,ioos:station:NOAA.NDBC:SANF1:1,2011-06-16T01:00:00Z,24.4560,-81.8770,1011.1,1111122 